Date String (YYYY-MM-DD hh:mm:ss) UTC,Instrument flags,absolute air pressure of the measurement (hPa),sample flow rate (lpm),inlet stack bypass flow (lpm),air temperature of the measurement (°C),ambient temperature measured by the external sensor (°C),aerosol sample conditioner tube jacket temperature (°C),OPC LED temperature (°C),internal box temperature (°C),relative humidity of the measurement (%),span deviation,mass concentration of particles derived from Lorenz-Mie calculation of OPC scattering (μg/m³),mass concentration of particles derived from Lorenz-Mie calculation of OPC scattering (μg/m³),mass concentration of particles derived from Lorenz-Mie calculation of OPC scattering (μg/m³)
DateTimeUTC,F1_M11,P_M11,Q1_M11,Q2_M11,T1_M11,T2_M11,T3_M11,T4_M11,T5_M11,U1_M11,ZSPAN_M11,X0_M11,X2_M11,X1_M11
2023-07-05 15:00:00,SystemResetWarning,0836.4,5.01,000.00,030.5,029.2,000.0,039.1,032.0,30.0,-004.0,0008.77,0006.20,0005.90
2023-07-05 15:01:00,SystemResetWarning,0836.4,5.00,000.00,030.5,029.2,000.0,039.1,032.0,30.1,-003.9,0008.76,0006.23,0005.92
2023-07-05 15:02:00,SystemResetWarning,0836.4,5.00,000.00,030.5,029.2,000.0,039.1,032.0,30.1,-003.8,0008.79,0006.26,0005.95
2023-07-05 15:03:00,SystemResetWarning,0836.4,5.00,000.00,030.5,029.2,000.0,039.1,032.0,30.1,-003.8,0008.78,0006.26,0005.96
2023-07-05 15:04:00,SystemResetWarning,0836.4,4.99,000.00,030.6,029.2,000.0,039.1,032.0,30.0,-003.3,0008.79,0006.26,0005.96
2023-07-05 15:05:00,SystemResetWarning,0836.4,4.99,000.00,030.6,029.2,000.0,039.1,032.0,29.9,-002.9,0008.75,0006.27,0005.97
2023-07-05 15:06:00,SystemResetWarning,0836.3,5.00,000.00,030.6,029.2,000.0,039.1,032.0,29.9,-003.1,0008.71,0006.27,0005.97
2023-07-05 15:07:00,SystemResetWarning,0836.3,5.00,000.00,030.6,029.2,000.0,039.1,032.0,29.9,-002.7,0008.78,0006.28,0005.97
2023-07-05 15:08:00,SystemResetWarning,0836.3,5.01,000.00,030.6,029.0,000.0,039.1,032.0,30.0,-002.4,0008.71,0006.26,0005.98
2023-07-05 15:09:00,SystemResetWarning,0836.3,4.99,000.00,030.6,027.2,000.0,039.0,031.9,30.0,-002.6,0008.71,0006.26,0005.99
2023-07-05 15:10:00,SystemResetWarning,0836.2,5.00,000.00,030.5,025.8,000.0,038.8,031.6,30.3,-002.5,0008.76,0006.25,0005.97
2023-07-05 15:11:00,SystemResetWarning,0836.2,5.00,000.00,030.3,025.6,000.0,038.8,031.3,30.5,-002.6,0008.75,0006.26,0005.99
2023-07-05 15:12:00,SystemResetWarning,0836.2,5.01,000.00,030.2,025.9,000.0,038.8,031.1,30.8,-002.6,0008.79,0006.27,0006.00
2023-07-05 15:13:00,SystemResetWarning,0836.3,5.00,000.00,030.1,026.3,000.0,038.8,031.2,30.9,-002.6,0008.86,0006.29,0005.99
2023-07-05 15:14:00,SystemResetWarning,0836.2,5.00,000.00,030.0,026.7,000.0,038.8,031.3,31.1,-002.6,0008.87,0006.28,0005.98
2023-07-05 15:15:00,SystemResetWarning,0836.2,5.00,000.00,030.0,027.1,000.0,038.8,031.3,31.0,-002.6,0008.93,0006.29,0005.98
2023-07-05 15:16:00,SystemResetWarning,0836.2,5.00,000.00,030.0,027.4,000.0,038.8,031.4,31.1,-002.8,0008.88,0006.27,0005.97
2023-07-05 15:17:00,SystemResetWarning,0836.2,5.00,000.00,030.0,027.7,000.0,038.7,031.4,31.1,-002.9,0008.89,0006.26,0005.96
2023-07-05 15:18:00,SystemResetWarning,0836.2,4.99,000.00,030.0,027.9,000.0,038.7,031.4,31.1,-003.1,0008.82,0006.24,0005.96
2023-07-05 15:19:00,SystemResetWarning,0836.2,4.99,000.00,030.0,028.0,000.0,038.7,031.5,31.1,-003.3,0009.05,0006.24,0005.95
2023-07-05 15:20:00,SystemResetWarning,0836.3,5.00,000.00,030.0,028.2,000.0,038.7,031.5,31.2,-003.3,0009.13,0006.22,0005.93
2023-07-05 15:21:00,SystemResetWarning,0836.2,4.99,000.00,030.0,028.3,000.0,038.7,031.5,31.3,-003.3,0009.12,0006.20,0005.92
2023-07-05 15:22:00,SystemResetWarning,0836.2,5.00,000.00,030.0,028.4,000.0,038.7,031.5,31.4,-003.3,0009.17,0006.20,0005.90
2023-07-05 15:23:00,SystemResetWarning,0836.2,5.01,000.00,030.0,028.5,000.0,038.7,031.5,31.3,-003.1,0009.11,0006.16,0005.86
2023-07-05 15:24:00,SystemResetWarning,0836.2,5.01,000.00,030.1,028.5,000.0,038.7,031.6,31.2,-003.0,0009.09,0006.14,0005.84
2023-07-05 15:25:00,SystemResetWarning,0836.2,5.00,000.00,030.1,028.6,000.0,038.7,031.6,31.4,-002.9,0009.08,0006.12,0005.84
2023-07-05 15:26:00,SystemResetWarning,0836.2,5.00,000.00,030.1,028.6,000.0,038.7,031.6,31.4,-003.1,0008.99,0006.10,0005.83
2023-07-05 15:27:00,SystemResetWarning,0836.2,5.00,000.00,030.1,028.7,000.0,038.7,031.6,31.3,-003.1,0009.02,0006.11,0005.83
2023-07-05 15:28:00,SystemResetWarning,0836.2,5.00,000.00,030.1,028.7,000.0,038.7,031.7,31.2,-003.0,0009.05,0006.13,0005.84
2023-07-05 15:29:00,SystemResetWarning,0836.2,5.00,000.00,030.1,028.7,000.0,038.7,031.7,31.1,-003.2,0009.02,0006.12,0005.84
2023-07-05 15:30:00,SystemResetWarning,0836.2,5.00,000.00,030.1,028.8,000.0,038.7,031.7,31.1,-003.4,0008.94,0006.11,0005.83
2023-07-05 15:31:00,SystemResetWarning,0836.2,5.00,000.00,030.1,028.8,000.0,038.7,031.7,31.2,-003.6,0008.94,0006.13,0005.83
2023-07-05 15:32:00,SystemResetWarning,0836.2,5.00,000.00,030.2,028.8,000.0,038.7,031.7,31.1,-003.7,0008.83,0006.11,0005.82
2023-07-05 15:33:00,SystemResetWarning,0836.2,5.00,000.00,030.2,028.9,000.0,038.7,031.7,31.2,-003.4,0008.78,0006.10,0005.83
2023-07-05 15:34:00,SystemResetWarning,0836.2,5.00,000.00,030.2,028.9,000.0,038.7,031.7,31.2,-003.4,0008.78,0006.10,0005.84
2023-07-05 15:35:00,SystemResetWarning,0836.2,5.00,000.00,030.2,028.9,000.0,038.7,031.7,31.2,-003.4,0008.72,0006.08,0005.83
2023-07-05 15:36:00,SystemResetWarning,0836.2,5.01,000.00,030.2,028.9,000.0,038.7,031.8,31.2,-003.4,0008.66,0006.05,0005.81
2023-07-05 15:37:00,SystemResetWarning,0836.2,5.00,000.00,030.2,028.9,000.0,038.7,031.8,31.1,-003.4,0008.59,0006.02,0005.78
2023-07-05 15:38:00,SystemResetWarning,0836.1,5.00,000.00,030.2,028.9,000.0,038.8,031.7,31.0,-003.3,0008.56,0005.99,0005.76
2023-07-05 15:39:00,SystemResetWarning,0836.1,5.00,000.00,030.3,029.0,000.0,038.8,031.8,30.9,-003.5,0008.53,0005.96,0005.73
2023-07-05 15:40:00,SystemResetWarning,0836.1,5.00,000.00,030.3,029.0,000.0,038.8,031.8,30.8,-003.3,0008.47,0005.92,0005.71
2023-07-05 15:41:00,SystemResetWarning,0836.1,5.00,000.00,030.3,029.0,000.0,038.8,031.8,30.9,-003.2,0008.31,0005.89,0005.68
2023-07-05 15:42:00,SystemResetWarning,0836.1,5.00,000.00,030.3,029.0,000.0,038.8,031.9,31.1,-003.1,0008.17,0005.84,0005.65
2023-07-05 15:43:00,SystemResetWarning,0836.1,4.99,000.00,030.3,029.0,000.0,038.8,031.9,31.2,-003.1,0008.15,0005.81,0005.61
2023-07-05 15:44:00,SystemResetWarning,0836.1,5.00,000.00,030.3,029.0,000.0,038.8,031.9,31.2,-003.4,0008.15,0005.77,0005.57
2023-07-05 15:45:00,SystemResetWarning,0836.0,5.00,000.00,030.3,029.0,000.0,038.8,031.9,31.2,-003.8,0008.05,0005.71,0005.53
2023-07-05 15:46:00,SystemResetWarning,0836.0,5.00,000.00,030.3,029.1,000.0,038.8,031.9,31.6,-004.2,0007.97,0005.66,0005.50
2023-07-05 15:47:00,SystemResetWarning,0836.0,5.00,000.00,030.4,029.1,000.0,038.9,031.9,31.7,-004.3,0007.92,0005.63,0005.48
2023-07-05 15:48:00,SystemResetWarning,0836.0,5.01,000.00,030.4,029.1,000.0,038.9,031.9,31.6,-004.4,0007.99,0005.64,0005.47
2023-07-05 15:49:00,SystemResetWarning,0836.0,4.99,000.00,030.4,028.2,000.0,038.8,031.9,31.6,-004.7,0007.99,0005.63,0005.45
2023-07-05 15:50:00,SystemResetWarning,0835.9,5.00,000.00,030.3,026.3,000.0,038.7,031.6,31.4,-004.7,0008.02,0005.63,0005.44
2023-07-05 15:51:00,SystemResetWarning,0835.9,5.01,000.00,030.2,025.6,000.0,038.6,031.3,31.4,-005.0,0008.04,0005.66,0005.45
2023-07-05 15:52:00,SystemResetWarning,0835.9,5.01,000.00,030.0,025.7,000.0,038.6,031.0,31.5,-005.1,0008.04,0005.66,0005.46
2023-07-05 15:53:00,SystemResetWarning,0835.9,5.00,000.00,029.9,026.1,000.0,038.6,031.0,31.7,-004.8,0008.07,0005.67,0005.48
2023-07-05 15:54:00,SystemResetWarning,0835.9,4.99,000.00,029.9,026.5,000.0,038.6,031.1,31.7,-004.6,0008.08,0005.69,0005.50
2023-07-05 15:55:00,SystemResetWarning,0835.9,5.00,000.00,029.9,026.9,000.0,038.6,031.2,31.9,-004.4,0008.13,0005.73,0005.52
2023-07-05 15:56:00,SystemResetWarning,0835.9,5.00,000.00,029.8,027.2,000.0,038.6,031.2,31.9,-004.1,0008.46,0005.79,0005.57
2023-07-05 15:57:00,SystemResetWarning,0835.9,4.99,000.00,029.8,027.5,000.0,038.6,031.2,31.8,-004.0,0008.73,0005.84,0005.60
2023-07-05 15:58:00,SystemResetWarning,0835.9,4.98,000.00,029.8,027.7,000.0,038.5,031.3,31.8,-004.0,0008.83,0005.88,0005.61
2023-07-05 15:59:00,SystemResetWarning,0835.9,5.01,000.00,029.8,027.9,000.0,038.5,031.3,32.0,-003.9,0008.93,0005.90,0005.62
